Location: G�ppingen
(48.7089°N, 9.6563°E)
Time: 23:55:33
(UTC+02:00)

M-CUBED/EXP-1 PRIME - Pass Details

Date: 21 March 2019
Orbit: 430 x 671 km, 101.7° (Epoch: 24 April)

Event Time Altitude Azimuth Distance (km) Brightness Sun altitude
Rises 22:12:26 0° 4° (N) 2,897 ? -32.8°
Reaches altitude 10° 22:15:24 10° 342° (NNW) 2,028 ? -33.1°
Maximum altitude 22:17:51 15° 308° (NW) 1,750 ? -33.4°
Drops below altitude 10° 22:20:21 10° 274° (W) 2,074 ? -33.7°
Sets 22:23:27 0° 252° (WSW) 3,003 ? -34.0°
